Showing default

SPARTAN, 48964

Orbit data source: Space-Track

SPARTAN, 48964 is a payload satellite owned by Endurosat (BG) in SSO that was launched on Wed, 30 Jun 2021 UTC via an FALCON 9 launch vehicle from the Air Force Eastern Test Range (AFETR). Payload-class satellites include a variety of spacecraft equipped with specific instruments for various scientific and technological missions. These include communications satellites like Starlink; space stations such as the ISS; scientific satellites like the Hubble; Earth observation satellites from companies like Planet Labs, Umbra, and HawkEye 360; GPS; miniature CubeSats for education and research; and military/defense satellites.

Loading next visibility...
Identifier
48964, 2021-059CP
Orbit
SSO
Country
Flag of BGBG / BGR
Related business
Manufacturer
Endurosat
Mission
Operational Commercial Technology
Bus & Motor
CUBESAT 6U, Unknown motor
Mass
~10 kg wet, ~10 kg dry
Launch date (UTC)
2021-06-30 (4 years ago)
Launch vehicle
FALCON 9
Launch site
Air Force Eastern Test Range (AFETR)
Object type
Payload
Rocket body
Debris
Shape & HBR
Box + 2 Pan, 0.1 m
Radar Cross Section
0.080 m², Medium (>0.1 m² and < 1m²)

Expand to show TLE details & history
Last TLE update: 17 hours ago

TLE from 17 hours ago
0 SPARTAN
1 48964U 21059CP  25308.93235212  .00030303  00000-0  45416-3 0  9995
2 48964  97.6855 123.9434 0003341  60.5049 299.6537 15.54897504242832
Epoch: 2025-11-04T22:22Z
TLE epoch observation values (Epoch: 2025-11-04T22:22:35.223Z)
Latitude
-0.00001°
Longitude
103.88436°
Altitude
404.459 km
Speed
7.669 km/s
True Right ascension
08h 15m 46s
True Declination
0° 00' 00"
Sunlit
Object was in daylight at epoch
Visualization orbit readout
Latitude
Unknown
Longitude
Unknown
Altitude
Unknown
Speed
Unknown
Apparent Right ascension
Unknown
Apparent Declination
Unknown
Sunlit
N/A
Visualization observer readout
Local Sidereal Time
11:30:21
Azimuth
Unknown
Elevation
Unknown
Doppler factor
Unknown
Orbital elements
Apogee altitude
401.647 km
Perigee altitude
397.118 km
Semi-major axis
6,777.519 km
Eccentricity
0.00033
Inclination
97.6855°
RAAN
123.9434°
Arg. of periapsis
60.5049°
True anomaly
299.62042°
Mean anomaly
299.6537°
Eccentric anomaly
299.63706°
Mean motion
3.88989 °/min
Orbital period
92.55 mins
BSTAR
0.00045416
Loading maneuver chart data...
Computing Atmospheric mass density...

Documentation

Showing up to 5 results
|